[[{"header":{"parameterUnit":"m.s-1","parameterCategory":1,"la1":30.2991,"la2":30.254,"lo1":-89.0895,"lo2":-89.0444,"dy":0.0017,"dx":0.0017,"nx":28,"ny":28,"refTime":"2024-08-27T21:00:00:Z","depth":0,"parameterNumber":2,"parameterNumberName":"U-component_of_WINDS"},"data":[0,0,0,0,0,0,0,0,0,0,0,0,0,0,0,0,0,0,0,0,0,0,0,0,0,0,0,0,0,0,0,0,0,0,0,0,0,0,0,0,0,0,0,0,0,0,0,0,0,0,0,0,0,0,0,0,0,0,-0.4573,-0.4573,0,-0.4546,-0.4545,-0.4545,-0.4549,-0.455,-0.455,-0.4551,-0.452,-0.4519,-0.4517,0,0,0,0,0,0,0,0,0,0,0,0,0,-0.463,-0.4629,-0.4573,-0.4573,-0.4573,-0.4546,-0.4545,-0.4545,-0.4549,-0.455,-0.455,-0.4551,-0.452,-0.4519,-0.4517,0,0,0,0,0,0,0,0,0,0,0,0,0,-0.4604,-0.4628,-0.4574,-0.4572,-0.4571,-0.4546,-0.4545,-0.4545,-0.4549,-0.455,-0.4551,-0.4551,-0.4521,-0.4519,-0.4517,-0.449,0,0,-0.4511,-0.451,0,0,0,0,0,0,0,0,-0.4605,-0.4602,-0.4572,-0.4572,-0.4571,-0.4552,-0.4554,-0.4526,-0.4549,-0.4557,-0.4551,-0.4552,-0.453,-0.4527,-0.452,-0.4489,-0.4488,-0.4511,-0.451,-0.4509,-0.4508,0,0,0,0,0,0,0,-0.4607,-0.4603,-0.4562,-0.4572,-0.4571,-0.4572,-0.4569,-0.4549,-0.454,-0.4557,-0.4557,-0.4554,-0.4529,-0.4522,-0.4519,-0.4487,-0.4511,-0.4509,-0.4508,-0.4507,-0.4434,-0.4433,0,0,0,0,0,0,-0.461,-0.4604,-0.4563,-0.4561,-0.4591,-0.457,-0.4567,-0.4557,-0.454,-0.4538,-0.4553,-0.4554,-0.4525,-0.4522,-0.4518,-0.4486,-0.4509,-0.4507,-0.4506,-0.4435,-0.4434,-0.4433,0,0,0,0,0,0,-0.4611,-0.4606,-0.4564,-0.4583,-0.4578,-0.4569,-0.4557,-0.4556,-0.4549,-0.4537,-0.4536,-0.4547,-0.4525,-0.4521,-0.4498,-0.4485,-0.4506,-0.4504,-0.4436,-0.4434,-0.4433,-0.4422,0,0,0,0,0,0,-0.4612,-0.4606,-0.4596,-0.4583,-0.4577,-0.4544,-0.4557,-0.4555,-0.4546,-0.4547,-0.4531,-0.4529,-0.4526,-0.4501,-0.4496,-0.4483,-0.4503,-0.4437,-0.4435,-0.4434,-0.4424,-0.4421,-0.4418,0,0,0,0,0,-0.4614,-0.4593,-0.4596,-0.4591,-0.4564,-0.4544,-0.454,-0.4537,-0.4545,-0.4534,-0.4527,-0.453,-0.4488,-0.4498,-0.4493,-0.4479,-0.4437,-0.4436,-0.4434,-0.4425,-0.4421,-0.4418,0,0,0,0,0,0,-0.4604,-0.4592,-0.4594,-0.4568,-0.4557,-0.4544,-0.4531,-0.4533,-0.4519,-0.452,-0.4517,-0.4513,-0.4489,-0.4482,-0.4494,-0.4453,-0.4464,-0.4461,-0.4459,-0.4455,-0.4453,-0.4454,-0.4501,0,0,0,0,0,-0.46,-0.4584,-0.4574,-0.4552,-0.4547,-0.454,-0.4531,-0.453,-0.4518,-0.4513,-0.4504,-0.4492,-0.4476,-0.4465,-0.445,-0.4423,-0.442,-0.4411,-0.4409,-0.4407,-0.4404,-0.4389,-0.4385,-0.4427,-0.4427,-0.4427,0,0,-0.4589,-0.458,-0.457,-0.455,-0.4541,-0.4525,-0.4536,-0.4518,-0.4507,-0.451,-0.4487,-0.4481,-0.4467,-0.4442,-0.443,-0.4435,-0.4392,-0.4405,-0.4403,-0.4401,-0.4387,-0.4383,-0.438,-0.4426,-0.4426,-0.4426,0,0,-0.456,-0.4552,-0.4534,-0.4525,-0.4512,-0.4508,-0.4504,-0.4492,-0.4487,-0.4465,-0.4468,-0.4454,-0.4426,-0.4417,-0.4408,-0.4379,-0.438,-0.4374,-0.4359,-0.4345,-0.4342,-0.4339,-0.4328,-0.4324,-0.4371,-0.4371,-0.4371,0,-0.4548,-0.4525,-0.4523,-0.4506,-0.4497,-0.4501,-0.4482,-0.4474,-0.4456,-0.445,-0.4456,-0.4423,-0.4414,-0.4387,-0.438,-0.4373,-0.4367,-0.4375,-0.4343,-0.434,-0.4337,-0.4326,-0.4322,-0.437,-0.437,-0.4371,-0.4371,0,-0.451,-0.4494,-0.448,-0.4465,-0.4454,-0.4436,-0.4432,-0.4422,-0.4422,-0.4418,-0.4395,-0.4385,-0.4368,-0.4362,-0.4362,-0.4335,-0.4339,-0.4344,-0.4354,-0.4332,-0.4322,-0.4318,-0.4369,-0.437,-0.437,-0.437,0,0,-0.4473,-0.4458,-0.4453,-0.4446,-0.4433,-0.442,-0.4403,-0.4388,-0.4379,-0.4367,-0.4352,-0.433,-0.4335,-0.4326,-0.4325,-0.4313,-0.429,-0.4319,-0.4319,-0.4314,-0.426,-0.4255,-0.425,-0.4292,-0.4291,-0.429,-0.4261,0,-0.4443,-0.4412,-0.4411,-0.4383,-0.4368,-0.4373,-0.4357,-0.4348,-0.4344,-0.433,-0.4326,-0.431,-0.4318,-0.4313,-0.4301,-0.4295,-0.4279,-0.4297,-0.4277,-0.4276,-0.4279,-0.4245,-0.424,-0.4212,-0.4257,-0.4256,-0.4256,0,-0.4403,-0.4391,-0.4362,-0.4352,-0.4346,-0.4332,-0.4318,-0.4306,-0.4295,-0.4293,-0.4284,-0.4285,-0.4267,-0.4279,-0.4254,-0.4267,-0.4259,-0.4255,-0.4254,-0.425,-0.4263,-0.424,-0.4203,-0.4199,-0.425,-0.425,-0.4251,0,-0.4378,-0.4355,-0.4334,-0.4329,-0.4317,-0.4307,-0.4302,-0.4292,-0.4283,-0.4271,-0.4266,-0.4252,-0.4244,-0.4233,-0.423,-0.4239,-0.4205,-0.4217,-0.4202,-0.4202,-0.4193,-0.4194,-0.4154,-0.419,-0.419,-0.419,-0.419,0,-0.4344,-0.4325,-0.4323,-0.431,-0.429,-0.429,-0.427,-0.4265,-0.4257,-0.4243,-0.4247,-0.4234,-0.4232,-0.4218,-0.4216,-0.4196,-0.4192,-0.419,-0.4189,-0.4189,-0.4189,-0.4182,-0.4183,-0.4189,-0.4189,-0.419,-0.419,0,-0.4312,-0.4309,-0.4287,-0.4279,-0.4276,-0.4261,-0.4254,-0.4242,-0.4239,-0.4222,-0.4218,-0.4213,-0.4197,-0.4194,-0.4176,-0.4174,-0.415,-0.4152,-0.4154,-0.4153,-0.4138,-0.414,-0.4092,-0.4085,-0.4127,-0.4127,-0.4126,0,-0.4289,-0.4275,-0.4266,-0.4257,-0.4251,-0.4238,-0.4229,-0.4229,-0.422,-0.4208,-0.4197,-0.4182,-0.417,-0.4145,-0.414,-0.4126,-0.4127,-0.4111,-0.4125,-0.4125,-0.4126,-0.4126,-0.4125,-0.4108,-0.4108,-0.4107,-0.4107,0,-0.425,-0.425,-0.4237,-0.4225,-0.4215,-0.4205,-0.4195,-0.4188,-0.4187,-0.4176,-0.4161,-0.4152,-0.4134,-0.4119,-0.4106,-0.41,-0.4103,-0.4103,-0.4099,-0.4097,-0.4099,-0.4097,-0.4145,-0.4104,-0.4104,-0.4104,-0.4104,-0.4105,-0.4221,-0.4209,-0.4201,-0.4187,-0.418,-0.4172,-0.416,-0.4156,-0.4144,-0.4129,-0.4131,-0.4114,-0.4105,-0.4087,-0.4081,-0.4068,-0.4073,-0.4066,-0.4065,-0.4063,-0.4061,-0.4102,-0.4065,-0.4066,-0.4066,-0.4066,-0.4066,0,-0.4181,-0.4176,-0.4164,-0.4151,-0.414,-0.4146,-0.4136,-0.4127,-0.4112,-0.4104,-0.4093,-0.4076,-0.4062,-0.4056,-0.4043,-0.4033,-0.4034,-0.4029,-0.4029,-0.4028,-0.4058,-0.4063,-0.4029,-0.4029,-0.4029,-0.4029,-0.4029,-0.4029,-0.4158,-0.4138,-0.4138,-0.4115,-0.411,-0.4094,-0.4088,-0.4081,-0.4074,-0.4055,-0.4044,-0.4041,-0.4034,-0.402,-0.4008,-0.4007,-0.4001,-0.3995,-0.3995,-0.4022,-0.4026,-0.4029,-0.4034,-0.3994,-0.3994,-0.3966,-0.3965,-0.3965]},{"header":{"parameterUnit":"m.s-1","parameterCategory":1,"la1":30.2991,"la2":30.254,"lo1":-89.0895,"lo2":-89.0444,"dy":0.0017,"dx":0.0017,"nx":28,"ny":28,"refTime":"2024-08-27T21:00:00:Z","depth":0,"parameterNumber":3,"parameterNumberName":"V-component_of_WINDS"},"data":[0,0,0,0,0,0,0,0,0,0,0,0,0,0,0,0,0,0,0,0,0,0,0,0,0,0,0,0,0,0,0,0,0,0,0,0,0,0,0,0,0,0,0,0,0,0,0,0,0,0,0,0,0,0,0,0,0,0,1.3441,1.3439,0,1.328,1.3278,1.3276,1.3193,1.3192,1.3192,1.3192,1.3022,1.3018,1.3013,0,0,0,0,0,0,0,0,0,0,0,0,0,1.3672,1.3669,1.3441,1.3439,1.3437,1.328,1.3278,1.3276,1.3193,1.3192,1.3192,1.3192,1.3024,1.3018,1.3013,0,0,0,0,0,0,0,0,0,0,0,0,0,1.3548,1.3667,1.3442,1.3377,1.3369,1.3281,1.3278,1.3275,1.3193,1.3192,1.3192,1.3192,1.3025,1.3019,1.3012,1.2974,0,0,1.2992,1.2989,0,0,0,0,0,0,0,0,1.3555,1.3539,1.3388,1.3381,1.3373,1.3256,1.3297,1.3174,1.3193,1.326,1.3192,1.3192,1.31,1.3087,1.3057,1.2966,1.2959,1.2991,1.2987,1.2984,1.2983,0,0,0,0,0,0,0,1.3564,1.3546,1.3377,1.3386,1.3377,1.3354,1.3336,1.3273,1.3182,1.3254,1.3247,1.323,1.3095,1.3064,1.3052,1.2956,1.2992,1.2986,1.2982,1.2979,1.2826,1.2826,0,0,0,0,0,0,1.3583,1.3553,1.3382,1.3372,1.3465,1.335,1.333,1.3294,1.3183,1.3166,1.323,1.3226,1.3075,1.306,1.3046,1.2994,1.2985,1.2978,1.2974,1.2826,1.2826,1.2826,0,0,0,0,0,0,1.3589,1.3569,1.3389,1.3461,1.3436,1.3347,1.3306,1.3291,1.3259,1.3165,1.3148,1.3214,1.3074,1.3055,1.2993,1.2987,1.2975,1.2969,1.2826,1.2826,1.2826,1.289,0,0,0,0,0,0,1.3596,1.3571,1.3557,1.3461,1.3433,1.334,1.3306,1.3288,1.3248,1.3242,1.3146,1.313,1.3073,1.3003,1.2986,1.2978,1.2964,1.2826,1.2826,1.2826,1.2888,1.2893,1.2896,0,0,0,0,0,1.3604,1.358,1.3557,1.3536,1.3413,1.334,1.3323,1.326,1.3248,1.3232,1.3172,1.3133,1.2991,1.2998,1.2978,1.2967,1.2826,1.2826,1.2826,1.2887,1.2892,1.2896,0,0,0,0,0,0,1.3675,1.3566,1.3539,1.3484,1.3422,1.3326,1.3304,1.3267,1.3206,1.3203,1.3125,1.3104,1.3049,1.3001,1.3011,1.2924,1.2904,1.29,1.2957,1.2961,1.2965,1.2978,1.2958,0,0,0,0,0,1.3685,1.3636,1.3543,1.3503,1.3474,1.3395,1.336,1.3317,1.3249,1.3222,1.3157,1.3091,1.3031,1.2994,1.2934,1.2881,1.2859,1.2864,1.2868,1.2872,1.2869,1.2838,1.2839,1.2825,1.2825,1.2825,0,0,1.3704,1.3638,1.3612,1.3516,1.3463,1.3413,1.3373,1.3321,1.3283,1.3213,1.3151,1.3101,1.3022,1.2965,1.2936,1.2924,1.2868,1.2871,1.2875,1.287,1.2838,1.2839,1.2841,1.2825,1.2825,1.2825,0,0,1.3712,1.3658,1.3619,1.3567,1.3488,1.3436,1.3427,1.3336,1.3301,1.3238,1.3185,1.3137,1.3036,1.2983,1.2942,1.2932,1.2893,1.2914,1.2934,1.2905,1.2906,1.2906,1.2903,1.2903,1.2912,1.2912,1.2912,0,1.3745,1.3669,1.3603,1.3555,1.3515,1.3451,1.3411,1.3363,1.3268,1.324,1.3228,1.3101,1.3043,1.2973,1.2971,1.294,1.2926,1.2925,1.2911,1.2911,1.2911,1.2906,1.2905,1.2915,1.2914,1.2914,1.2914,0,1.3713,1.3661,1.3639,1.3551,1.3508,1.3463,1.339,1.3354,1.3315,1.3263,1.3199,1.3128,1.3053,1.3033,1.2993,1.2957,1.2952,1.2927,1.2905,1.2916,1.2911,1.2909,1.2919,1.2918,1.2917,1.2916,0,0,1.3762,1.3639,1.3632,1.3592,1.35,1.3458,1.341,1.3339,1.3309,1.3245,1.3204,1.312,1.3097,1.3051,1.3004,1.2979,1.2975,1.2956,1.2953,1.2962,1.2931,1.2951,1.2951,1.2949,1.2949,1.2948,1.2938,0,1.3758,1.3672,1.3612,1.3549,1.35,1.3439,1.3398,1.3337,1.3288,1.3238,1.3182,1.3125,1.3098,1.307,1.3042,1.2982,1.2968,1.2982,1.2909,1.2907,1.2931,1.2948,1.2968,1.2962,1.2935,1.2935,1.2935,0,1.3742,1.3682,1.3615,1.353,1.3507,1.3471,1.3401,1.3354,1.3283,1.3249,1.3199,1.3151,1.3098,1.3081,1.3006,1.3017,1.2983,1.2949,1.2947,1.2938,1.2922,1.2939,1.2958,1.2958,1.2931,1.2931,1.2931,0,1.3785,1.3688,1.3635,1.3602,1.3501,1.3477,1.3433,1.3362,1.3323,1.3261,1.3235,1.3167,1.313,1.3078,1.3013,1.3007,1.2945,1.2922,1.2914,1.2916,1.2904,1.2905,1.2918,1.2882,1.2882,1.2882,1.2882,0,1.3787,1.3748,1.3653,1.3621,1.3576,1.3506,1.3463,1.3414,1.3351,1.3308,1.325,1.321,1.3127,1.3076,1.3025,1.2971,1.2954,1.2924,1.2911,1.293,1.2934,1.2907,1.2906,1.2882,1.2882,1.2882,1.2882,0,1.3827,1.3762,1.3701,1.3611,1.3587,1.3558,1.3479,1.3445,1.3393,1.3339,1.3322,1.324,1.3177,1.3108,1.3021,1.2987,1.2936,1.2917,1.2961,1.2953,1.2949,1.2951,1.2945,1.2941,1.2908,1.2909,1.2909,0,1.3833,1.3802,1.3709,1.3677,1.3635,1.3583,1.3544,1.3474,1.3435,1.3352,1.3328,1.3261,1.3205,1.3108,1.3039,1.2973,1.2952,1.2955,1.2942,1.2962,1.2952,1.2955,1.2952,1.2959,1.2959,1.296,1.296,0,1.385,1.382,1.3766,1.3701,1.3656,1.3601,1.3543,1.352,1.3438,1.3397,1.3334,1.329,1.3203,1.3137,1.3063,1.3016,1.2975,1.2965,1.296,1.2979,1.3006,1.2992,1.2972,1.2966,1.2965,1.2965,1.2964,1.2964,1.3874,1.3844,1.3774,1.3716,1.3666,1.3614,1.3577,1.3522,1.3468,1.3393,1.3355,1.3292,1.3221,1.3117,1.3072,1.3021,1.3007,1.2999,1.2997,1.2997,1.3002,1.3014,1.3007,1.3006,1.3006,1.3006,1.3006,0,1.3889,1.3841,1.3788,1.3711,1.3665,1.3632,1.3566,1.353,1.3476,1.3414,1.336,1.3287,1.3224,1.3151,1.3083,1.3056,1.3035,1.304,1.3042,1.3032,1.3018,1.303,1.3058,1.3058,1.3058,1.3058,1.3058,1.3058,1.3891,1.3839,1.3801,1.3723,1.3674,1.3614,1.358,1.3531,1.3481,1.3403,1.3351,1.3305,1.3238,1.3165,1.3105,1.3085,1.3063,1.3074,1.3048,1.3037,1.3032,1.3028,1.3039,1.3069,1.3069,1.3066,1.3066,1.3066]}]]